Temperature
25 24 24 25 30 30 29 28 29 28 27 26 25 26 26 25 25 23 20 20 19 19 18 18 18 18 18 18 18 18 18 18 18 18 18 18 18 18 18 18 18 18 18 18 18 18 18 18 18
24 24 25 29 31 29 28 29 28 27 26 26 25 25 25 23 22 21 20 19 19 19 18 18 18 18 18 18 18 18 18 18 18 18 18 18 18 18 18 18 18 18 18 18 18 18 18 18 18
25 25 28 32 30 29 28 28 28 27 26 26 25 25 24 23 21 20 20 19 19 18 18 18 18 18 18 18 18 18 18 18 18 18 18 18 18 18 18 18 18 18 18 18 18 18 18 18 18
25 28 31 32 30 29 29 29 28 28 26 26 26 25 23 21 21 20 19 19 19 18 18 17 18 18 18 18 18 18 18 18 18 18 18 18 18 18 18 18 18 18 18 18 18 17 17 17 17
27 31 32 31 30 29 30 29 28 29 27 26 26 25 23 20 20 20 19 19 20 19 18 17 18 18 18 18 18 18 18 18 18 18 18 18 18 18 18 18 17 17 17 17 17 17 17 17 17
31 33 32 30 30 30 30 28 28 28 27 26 26 25 22 20 20 20 20 20 20 19 19 18 18 18 18 18 18 18 18 18 18 18 18 18 18 18 18 18 18 17 17 17 17 17 17 17 17
32 33 32 31 30 30 30 28 29 28 27 26 26 25 22 21 20 20 20 20 20 20 19 18 18 18 18 18 18 18 18 18 18 18 18 18 18 18 18 18 17 17 17 17 17 17 17 17 17
31 33 32 31 31 30 29 29 28 28 27 25 26 26 24 21 20 20 20 19 19 19 19 18 18 18 18 18 18 18 18 18 18 18 18 18 18 18 18 17 17 17 17 17 17 17 17 17 17
30 33 32 31 31 30 30 29 28 27 26 26 25 25 23 21 20 20 20 20 19 19 19 19 19 18 18 18 18 18 18 18 18 18 18 18 17 17 17 17 18 17 17 17 17 17 18 18 18
32 33 32 32 32 31 30 29 28 28 27 26 25 23 21 20 20 21 21 20 19 19 19 19 19 18 18 18 18 18 17 17 17 17 17 17 17 17 17 18 18 18 17 17 17 17 18 17 17
33 32 32 32 31 31 30 30 29 29 29 27 25 23 22 21 21 21 21 21 20 19 19 19 18 18 18 18 18 18 18 17 17 17 17 17 17 17 17 17 17 17 17 17 17 17 17 17 17
32 32 31 31 30 30 30 30 29 29 29 27 25 23 22 22 22 22 21 21 20 19 19 19 19 18 18 18 18 18 18 18 18 17 17 17 17 17 17 17 17 17 17 17 17 17 17 17 17
32 32 31 31 30 30 30 30 29 29 27 26 25 23 23 23 22 22 21 20 20 19 19 19 18 18 18 18 18 18 18 18 18 17 17 17 17 17 17 17 17 17 17 17 17 17 17 17 17
31 31 31 31 30 30 30 30 29 28 27 26 24 24 23 23 22 22 21 20 20 19 19 19 19 19 19 18 18 18 18 18 18 18 17 17 17 17 17 17 17 17 17 17 17 17 17 17 17
30 32 32 31 31 30 31 30 30 28 27 26 25 24 23 23 22 22 21 21 20 20 19 19 19 19 19 18 18 18 18 18 18 18 17 17 17 17 17 17 17 17 17 17 17 17 17 17 17
32 32 32 31 31 30 31 31 30 27 27 26 25 24 23 23 22 22 21 21 20 20 20 19 19 19 19 19 19 18 18 18 18 18 18 18 18 18 18 17 17 17 17 17 17 17 17 17 17
32 32 31 31 31 31 31 31 30 28 28 27 26 25 24 23 22 22 21 21 21 20 20 20 19 19 19 19 19 18 18 18 18 18 18 18 17 17 17 17 17 17 17 17 18 18 18 18 18
32 32 31 31 31 31 31 31 30 28 28 28 26 26 24 24 23 22 21 21 21 20 20 20 20 19 19 19 19 18 18 18 18 18 18 18 18 18 18 18 17 17 17 17 18 17 17 18 18
32 32 31 31 31 31 31 31 30 29 28 28 27 26 25 24 23 22 22 21 21 21 21 20 20 20 19 19 19 19 18 18 18 18 18 18 18 18 18 18 17 18 17 17 17 17 17 18 18
31 31 31 31 30 31 31 30 31 29 28 28 27 26 25 25 23 22 22 21 21 21 21 20 20 20 19 19 19 19 18 18 18 18 18 18 18 18 18 18 18 18 18 18 17 17 18 18 18
31 31 31 31 30 31 31 30 30 30 28 28 27 27 26 25 24 23 22 21 21 21 21 20 20 20 20 19 19 19 18 18 18 18 18 18 18 18 18 18 18 18 18 18 18 18 18 18 18
30 31 31 30 30 31 31 31 31 30 29 29 28 27 26 25 24 24 22 22 21 21 21 21 21 20 20 20 19 19 18 18 18 18 18 18 18 18 18 18 18 18 18 18 18 18 18 17 17
31 30 30 30 30 31 31 31 32 31 30 30 29 28 27 26 25 24 23 22 21 21 21 21 21 20 20 20 19 19 18 18 18 18 18 18 18 18 18 18 18 18 18 18 18 18 17 17 17
30 30 30 30 31 30 30 30 31 32 31 31 30 28 27 26 25 24 23 22 21 21 21 21 21 20 20 20 19 19 19 18 18 18 18 18 18 18 18 18 18 18 18 18 18 18 17 17 17
30 30 29 29 29 30 30 30 31 31 31 30 30 28 27 26 25 24 23 22 21 21 20 20 21 20 20 20 19 19 19 18 18 18 18 18 18 18 18 18 18 18 18 18 17 17 17 17 17
29 30 29 29 29 30 29 30 31 31 30 28 28 28 27 26 25 24 23 22 21 21 20 20 20 20 20 20 19 19 18 18 18 18 18 17 17 17 17 17 17 17 17 17 17 17 17 17 17
30 30 32 31 30 30 30 31 31 31 30 29 28 28 27 26 25 24 23 22 21 21 20 20 20 20 20 19 19 19 18 18 18 18 18 18 17 17 17 17 17 17 17 17 17 17 17 16 16
31 31 30 30 29 29 30 30 31 31 30 30 29 28 27 26 25 24 23 22 21 21 20 20 20 20 20 19 19 18 18 18 18 18 17 17 17 17 17 17 17 17 17 17 16 16 16 16 16
29 30 30 30 30 29 29 30 32 31 30 30 29 27 26 26 25 23 22 22 21 21 20 20 20 20 19 19 19 18 18 18 18 17 17 17 17 17 17 17 17 16 16 16 16 16 16 16 16
30 30 30 29 29 29 30 31 31 30 30 29 28 27 26 25 24 23 22 21 21 21 20 20 19 19 19 19 19 18 18 17 17 17 17 17 17 17 16 16 16 16 16 16 16 16 16 15 15
Wind_Speed
8 7 5 4 2 11 16 13 11 10 8 9 9 7 9 10 8 9 9 10 10 10 12 12 11 12 12 13 13 13 14 14 14 14 14 15 15 16 16 16 16 17 16 16 17 17 17 17 17
4 4 4 1 8 13 14 12 12 11 10 9 9 9 11 10 10 10 10 10 10 10 11 12 12 11 12 12 12 13 13 13 13 14 14 14 15 15 16 16 16 17 16 16 16 16 15 16 16
5 5 2 6 13 14 13 11 11 10 8 6 7 8 8 8 9 8 11 11 10 10 11 13 10 11 11 11 11 12 13 13 13 13 14 14 14 15 15 16 16 16 16 15 15 15 14 15 14
4 3 2 11 16 14 12 10 9 10 9 8 9 10 8 7 6 10 12 11 11 10 11 14 10 11 10 11 11 11 12 12 12 13 13 14 14 14 15 15 15 15 15 14 14 14 13 13 13
4 1 9 14 15 12 10 8 6 8 7 7 8 11 9 8 10 13 12 11 10 11 11 13 10 10 10 10 10 11 11 12 12 13 13 13 13 14 14 15 15 14 14 14 13 12 12 12 12
2 2 9 13 14 10 9 6 6 9 10 9 10 11 8 8 11 12 11 10 10 10 11 12 11 10 10 10 10 10 11 11 12 12 12 12 12 12 13 13 13 13 13 12 12 11 11 11 10
2 6 10 12 11 10 7 6 6 8 9 8 8 10 9 10 10 11 10 9 9 9 9 9 11 10 10 9 9 10 10 10 11 11 12 12 12 12 12 12 12 12 11 11 11 10 10 10 9
2 4 9 10 10 10 7 6 6 7 8 8 5 7 10 12 11 11 11 9 9 8 8 8 8 8 9 10 10 9 9 9 10 10 10 10 11 11 10 11 11 10 10 9 9 9 9 9 8
2 3 9 8 8 8 7 7 6 6 8 6 5 7 13 16 14 12 11 10 8 7 6 6 8 7 6 8 10 9 9 8 8 9 8 6 7 9 9 12 10 9 9 8 8 7 7 7 9
1 6 9 6 6 7 7 6 7 6 8 8 10 12 16 15 14 12 11 10 9 8 7 6 5 6 5 6 7 5 6 7 5 6 6 5 6 5 7 10 8 7 7 7 6 5 6 6 6
3 6 6 5 5 5 7 6 5 5 5 7 12 16 16 15 13 11 10 9 9 8 7 7 6 5 4 4 5 4 4 5 5 5 4 5 4 5 5 6 7 7 6 5 7 6 3 3 3
3 5 3 3 4 5 6 6 5 3 6 8 12 17 16 15 13 11 10 9 8 8 8 7 7 5 3 3 4 4 4 4 4 5 3 4 3 2 3 2 3 4 3 2 2 2 3 2 2
3 4 4 3 4 5 6 6 5 5 7 10 15 16 15 13 12 10 9 8 8 8 8 7 6 5 4 3 2 3 3 3 4 4 3 2 2 3 3 2 1 1 2 3 2 2 2 2 2
3 3 4 5 5 5 6 6 5 7 10 13 15 15 14 12 11 10 9 9 8 8 8 8 7 6 5 4 2 2 3 2 2 3 3 2 1 2 2 2 2 2 2 1 1 1 2 2 1
3 4 6 5 4 4 5 5 5 9 12 13 13 13 12 11 11 10 10 9 8 8 8 8 8 7 6 5 4 3 4 3 2 2 3 3 3 2 2 1 2 1 1 2 3 2 3 3 3
5 6 5 5 3 3 6 4 8 10 12 12 12 12 12 11 11 10 9 8 8 8 8 8 7 8 8 6 4 3 3 2 3 2 3 3 3 3 3 3 2 1 3 3 3 3 3 2 2
7 6 4 6 3 3 5 3 8 9 11 11 12 12 12 11 11 10 10 9 9 8 8 9 8 8 8 7 5 5 3 3 3 3 3 3 4 4 5 3 2 3 3 3 4 2 2 3 3
6 6 5 5 4 4 5 2 6 9 10 10 11 11 12 12 12 11 10 10 9 9 8 8 9 8 7 6 5 4 4 4 4 3 3 4 4 5 5 4 3 4 3 3 3 3 3 4 4
4 5 5 3 2 4 5 4 5 8 10 10 11 11 12 11 11 10 10 10 10 10 10 9 9 8 7 6 5 5 4 4 3 4 4 4 4 5 5 4 3 4 4 4 5 4 5 5 4
7 7 6 4 2 3 4 5 5 7 9 10 10 11 11 11 10 11 11 11 11 11 10 10 9 8 8 6 5 3 3 3 3 3 3 5 5 5 5 5 4 4 4 5 5 5 5 4 4
9 8 5 3 3 4 5 6 7 7 8 9 10 10 11 12 12 12 12 12 11 11 11 9 9 9 9 7 5 4 3 4 4 4 3 4 5 5 5 5 5 5 5 5 5 5 6 6 4
9 5 4 4 6 4 5 4 6 7 8 10 10 11 11 12 12 12 11 11 12 11 10 9 10 9 9 8 7 7 5 5 4 3 2 2 3 4 4 5 5 5 5 5 6 5 5 6 5
5 5 5 5 6 6 6 6 4 6 7 8 10 11 11 11 11 11 11 11 10 10 9 9 9 9 9 9 8 8 6 5 4 3 3 3 2 3 4 4 4 4 5 5 5 5 6 5 5
6 7 5 6 7 8 5 6 3 3 4 4 6 9 10 10 10 10 10 10 10 10 9 9 9 9 9 9 8 8 7 5 4 4 3 3 2 2 2 3 4 4 4 5 5 5 6 5 5
11 10 8 8 8 7 4 6 3 1 1 2 3 5 8 10 10 11 11 11 10 10 10 9 9 8 8 8 7 7 7 6 5 4 3 3 2 2 2 2 3 3 4 4 4 4 4 5 5
14 14 9 7 8 6 6 6 2 1 0 1 2 4 7 8 10 11 11 11 10 10 10 9 9 8 8 7 7 6 5 4 3 2 2 1 2 2 2 2 2 3 4 3 3 3 3 3 3
14 14 12 9 7 7 6 4 4 3 3 3 4 6 7 8 10 10 10 10 10 10 9 9 8 7 7 7 6 5 4 3 2 2 1 1 1 1 1 1 1 2 2 3 3 2 2 2 2
9 12 9 10 8 9 7 7 4 4 3 4 5 6 7 9 10 10 10 10 9 9 9 8 8 7 6 6 5 4 4 3 2 1 1 0 1 1 1 1 1 1 2 2 2 1 2 1 1
11 12 10 10 9 8 7 4 2 3 2 3 5 6 8 10 10 11 10 9 9 9 8 8 7 7 6 5 4 3 3 3 3 2 1 1 1 1 1 1 1 2 2 2 2 2 2 2 2
15 14 14 11 8 9 8 3 6 3 2 3 5 6 8 10 10 10 10 10 9 9 8 8 7 7 6 5 5 4 4 3 3 3 2 2 1 1 1 1 2 2 3 3 3 3 3 3 3
Wind_Direction
198 198 223 241 113 73 69 69 75 82 76 73 69 65 65 50 50 88 111 116 115 113 110 109 95 94 93 95 95 96 95 93 91 90 90 91 92 94 95 96 96 96 96 96 96 97 99 100 102
189 195 229 233 73 77 71 70 73 74 93 98 82 80 77 68 70 104 122 121 121 113 111 102 101 96 93 93 94 95 94 94 93 93 93 92 93 94 97 98 98 98 98 97 96 97 100 101 102
199 227 288 69 64 69 78 78 84 89 94 92 87 72 69 82 98 112 123 131 123 109 107 104 104 98 94 94 93 93 94 94 94 93 93 92 93 94 97 98 98 99 100 99 98 98 102 104 104
223 214 97 75 75 70 82 89 96 102 91 88 99 90 82 78 100 119 129 133 125 122 116 107 104 100 96 96 94 93 95 95 94 93 93 91 92 94 95 97 98 99 99 99 99 100 102 105 106
242 107 89 81 78 80 83 85 85 88 91 98 100 102 93 84 109 124 132 135 128 121 114 112 106 102 99 97 95 94 95 96 96 94 94 94 93 93 95 96 97 98 99 98 97 98 100 105 109
226 91 81 82 84 87 91 91 89 91 100 105 108 106 95 115 126 132 134 133 125 121 117 116 115 107 104 100 95 94 95 95 96 97 98 98 96 95 95 97 98 98 97 96 96 96 98 103 106
23 74 82 86 92 91 89 92 90 100 107 107 113 108 120 135 135 136 134 129 125 122 120 123 128 125 121 109 102 99 98 96 96 97 99 100 100 99 100 99 99 99 97 96 96 97 98 100 105
341 102 93 87 88 88 103 105 95 102 102 114 119 119 138 146 145 141 138 137 133 130 124 126 124 126 133 125 113 107 104 101 100 101 103 108 113 111 115 114 102 102 101 99 99 99 101 104 107
274 97 85 79 81 97 118 118 107 108 120 118 96 102 128 141 148 148 147 144 140 134 129 130 125 124 125 123 125 130 125 121 130 123 125 150 126 117 125 96 102 105 105 101 100 104 112 127 130
336 78 76 69 72 103 124 121 126 138 133 126 117 114 130 146 154 157 155 154 151 149 146 133 131 129 133 122 127 135 134 128 125 111 121 114 94 93 99 109 109 110 115 122 118 134 166 190 141
53 71 82 90 91 110 130 128 139 142 128 141 145 144 149 154 160 162 159 156 149 155 153 145 142 145 147 129 134 126 124 126 131 119 120 108 122 123 124 134 141 144 160 150 149 180 160 123 89
89 77 75 90 112 132 128 127 131 110 85 126 145 149 155 161 164 164 160 159 155 162 160 154 150 152 145 135 135 148 142 141 131 126 131 125 129 127 124 146 139 155 146 130 156 151 134 120 116
99 90 90 108 134 133 136 127 120 115 108 127 140 151 160 164 163 163 161 163 165 171 170 165 166 161 164 162 187 146 141 138 134 134 136 166 159 149 142 139 168 183 157 171 182 163 156 176 177
89 106 113 120 129 146 147 133 137 123 132 139 149 158 164 165 165 165 170 175 179 180 177 174 179 175 177 179 187 180 170 162 154 153 152 193 181 152 170 182 196 198 205 214 219 198 192 209 210
155 151 136 128 144 152 172 153 141 136 148 152 158 163 166 170 171 176 179 182 183 185 185 185 187 185 190 197 202 199 194 180 183 166 174 205 212 190 219 204 215 205 205 219 228 242 233 217 212
195 201 172 133 157 169 225 131 130 151 162 162 165 168 174 178 182 184 183 186 188 187 189 195 197 188 194 205 215 217 209 194 213 210 194 209 223 225 241 239 235 226 236 228 223 233 235 244 240
203 203 173 146 164 189 226 138 136 166 175 173 175 176 181 184 191 190 189 188 193 193 194 198 205 199 199 200 205 219 217 231 242 238 234 221 231 234 242 247 248 248 246 246 248 218 243 242 246
199 194 182 168 155 210 223 181 147 174 187 184 183 184 187 192 195 192 192 191 190 191 196 202 204 203 203 201 204 218 224 231 234 237 235 241 240 240 248 238 236 255 255 253 258 257 254 254 249
206 209 189 153 135 229 232 227 181 182 194 196 193 192 195 199 193 188 191 194 190 191 194 199 206 201 203 207 212 211 217 224 226 231 230 234 246 249 250 260 235 252 256 256 250 251 243 247 248
208 211 197 160 149 240 239 234 198 191 202 205 202 200 199 197 192 190 193 194 195 194 195 199 204 204 207 208 215 222 234 237 235 242 229 234 240 250 243 246 254 251 254 254 257 254 264 258 242
210 218 209 193 189 210 243 214 195 192 203 208 212 209 204 201 197 195 197 197 196 197 198 200 201 203 207 210 210 213 217 236 233 231 227 231 240 248 260 261 263 266 261 254 254 254 253 260 253
205 204 210 206 226 205 239 229 180 189 197 205 210 209 207 204 201 198 196 196 196 195 193 197 198 200 202 205 215 218 227 239 248 248 240 243 245 256 259 261 260 264 267 266 260 255 260 258 259
203 175 202 219 238 242 221 259 167 175 206 208 209 208 207 202 201 198 196 191 192 189 188 192 196 197 198 202 209 218 229 237 246 242 231 251 251 259 269 268 268 264 266 268 272 274 265 260 259
164 167 183 219 232 234 226 254 219 182 227 219 199 201 202 200 197 193 188 181 182 183 185 189 192 194 194 198 208 217 224 232 240 239 242 241 246 256 271 271 275 274 274 269 265 267 262 264 265
196 198 203 211 219 224 183 243 256 38 280 256 208 189 192 194 191 185 181 178 180 181 184 186 184 187 190 194 203 215 221 221 227 239 238 253 267 273 296 300 297 294 291 282 276 268 275 269 264
206 216 224 225 223 208 186 238 236 96 111 205 194 172 172 180 180 179 179 177 178 179 180 180 178 179 182 190 198 209 213 215 219 227 254 261 282 303 326 323 310 310 311 304 293 279 272 274 269
201 220 236 245 247 241 214 223 228 188 174 158 152 153 157 162 165 168 167 169 170 174 176 175 173 172 178 183 184 189 190 198 198 189 213 244 283 299 335 331 334 335 330 324 309 303 296 294 279
226 211 217 232 229 234 221 230 232 182 176 157 149 147 150 154 157 157 158 160 161 164 165 165 164 168 171 172 177 169 168 173 177 180 148 3 351 357 352 359 7 359 358 356 343 349 338 323 317
194 205 215 227 238 242 233 215 144 163 160 160 145 145 151 151 151 151 151 151 152 153 152 155 157 158 158 159 157 155 155 154 153 154 144 114 67 48 30 32 36 32 27 30 33 18 3 6 3
211 210 207 213 217 237 255 200 117 143 149 143 137 140 145 146 146 147 147 148 150 150 150 150 152 152 150 145 142 142 142 142 138 130 118 119 110 84 69 60 48 47 47 43 40 29 28 27 21
Height
1505 1505 1505 1506 1500 1502 1512 1512 1509 1513 1516 1521 1522 1522 1523 1526 1528 1540 1545 1545 1546 1547 1547 1546 1546 1546 1547 1547 1547 1548 1548 1548 1548 1548 1548 1548 1548 1548 1549 1549 1550 1551 1551 1552 1553 1554 1555 1556 1556
1507 1506 1507 1503 1499 1514 1520 1513 1515 1518 1522 1524 1525 1526 1527 1533 1537 1542 1544 1546 1548 1549 1550 1549 1548 1549 1550 1550 1550 1550 1551 1551 1551 1551 1551 1551 1552 1552 1552 1553 1553 1554 1554 1555 1556 1557 1558 1559 1560
1508 1508 1507 1499 1505 1515 1520 1516 1519 1522 1524 1525 1528 1530 1532 1538 1542 1544 1546 1548 1550 1551 1551 1550 1550 1551 1552 1552 1553 1553 1553 1554 1554 1554 1554 1554 1555 1555 1555 1556 1556 1557 1558 1558 1559 1560 1561 1562 1562
1510 1510 1505 1503 1514 1515 1516 1518 1521 1523 1526 1528 1528 1533 1538 1543 1544 1546 1547 1550 1551 1552 1554 1552 1552 1553 1554 1554 1555 1555 1556 1556 1556 1557 1557 1557 1558 1558 1558 1559 1559 1560 1561 1561 1562 1563 1564 1564 1565
1511 1506 1503 1510 1515 1516 1517 1521 1522 1522 1526 1529 1530 1535 1541 1545 1546 1548 1549 1552 1554 1555 1556 1555 1554 1555 1556 1557 1557 1558 1558 1559 1559 1559 1559 1560 1560 1561 1561 1562 1562 1563 1564 1564 1565 1566 1567 1567 1568
1510 1502 1507 1517 1519 1518 1520 1523 1524 1525 1529 1532 1533 1537 1544 1547 1549 1550 1552 1554 1556 1557 1558 1556 1556 1557 1558 1558 1559 1560 1560 1561 1561 1562 1562 1562 1563 1563 1564 1564 1565 1565 1566 1567 1568 1569 1569 1570 1570
1508 1503 1510 1514 1518 1519 1522 1525 1525 1527 1530 1533 1535 1538 1545 1549 1551 1552 1554 1555 1557 1559 1559 1560 1560 1559 1559 1560 1561 1562 1562 1563 1564 1564 1564 1565 1565 1566 1566 1567 1567 1568 1569 1570 1570 1571 1571 1572 1573
1511 1505 1510 1513 1517 1520 1523 1526 1528 1529 1533 1537 1537 1539 1544 1549 1551 1553 1555 1557 1558 1560 1561 1561 1562 1562 1563 1563 1563 1563 1564 1565 1565 1566 1566 1567 1568 1568 1569 1569 1569 1570 1571 1572 1572 1573 1574 1574 1574
1513 1507 1513 1514 1516 1519 1523 1526 1530 1532 1535 1537 1539 1540 1544 1548 1551 1554 1556 1558 1559 1560 1561 1563 1564 1564 1565 1566 1565 1565 1566 1567 1567 1568 1568 1570 1571 1572 1572 1571 1572 1572 1573 1574 1574 1575 1575 1576 1577
1510 1510 1515 1515 1515 1518 1524 1526 1529 1531 1534 1538 1541 1544 1546 1549 1552 1555 1557 1559 1560 1561 1563 1564 1565 1565 1567 1568 1567 1568 1569 1569 1570 1570 1571 1572 1572 1573 1573 1573 1573 1574 1575 1575 1576 1577 1577 1578 1580
1512 1513 1515 1518 1520 1521 1523 1526 1529 1529 1531 1536 1540 1544 1547 1550 1553 1556 1558 1560 1561 1562 1563 1565 1565 1565 1568 1568 1569 1570 1570 1570 1571 1571 1572 1572 1573 1574 1575 1576 1576 1576 1577 1578 1578 1579 1580 1581 1581
1515 1517 1519 1519 1522 1523 1524 1526 1529 1530 1533 1537 1540 1544 1548 1551 1554 1556 1558 1560 1562 1563 1564 1565 1566 1566 1567 1569 1570 1570 1571 1572 1573 1572 1573 1574 1574 1575 1576 1576 1578 1578 1578 1578 1580 1580 1580 1581 1581
1517 1519 1520 1521 1523 1524 1525 1527 1529 1532 1536 1538 1542 1545 1548 1551 1554 1557 1559 1561 1562 1563 1565 1565 1565 1566 1567 1568 1569 1571 1572 1573 1573 1573 1573 1574 1575 1576 1576 1576 1577 1578 1579 1579 1579 1580 1580 1580 1581
1519 1520 1521 1522 1523 1525 1525 1528 1530 1534 1537 1540 1543 1546 1549 1552 1555 1557 1559 1560 1562 1564 1565 1566 1566 1567 1567 1568 1569 1571 1572 1572 1573 1574 1574 1574 1575 1576 1576 1576 1577 1578 1579 1579 1579 1580 1580 1580 1580
1521 1519 1520 1521 1523 1524 1525 1526 1529 1534 1537 1540 1544 1547 1550 1552 1555 1557 1559 1560 1562 1564 1565 1566 1566 1567 1568 1569 1570 1572 1573 1573 1574 1574 1574 1574 1575 1576 1576 1577 1577 1578 1578 1577 1578 1578 1579 1579 1580
1517 1517 1520 1521 1522 1524 1525 1527 1528 1534 1537 1540 1543 1547 1550 1552 1555 1557 1559 1560 1562 1563 1565 1566 1567 1568 1568 1569 1570 1572 1573 1573 1574 1574 1574 1574 1575 1575 1576 1577 1578 1577 1577 1577 1577 1578 1579 1579 1579
1516 1518 1520 1522 1522 1522 1522 1524 1528 1533 1535 1538 1542 1545 1549 1551 1554 1556 1558 1559 1561 1562 1564 1565 1567 1568 1569 1569 1570 1571 1572 1572 1573 1574 1574 1574 1575 1575 1576 1576 1576 1576 1577 1577 1577 1577 1577 1577 1577
1519 1517 1520 1521 1521 1521 1521 1522 1527 1531 1534 1536 1540 1543 1547 1549 1552 1554 1556 1558 1559 1561 1562 1564 1565 1567 1568 1569 1570 1571 1571 1572 1572 1573 1573 1573 1574 1574 1575 1575 1575 1575 1575 1575 1575 1575 1575 1575 1575
1515 1517 1520 1520 1520 1521 1522 1522 1524 1529 1532 1534 1537 1541 1544 1547 1550 1552 1554 1556 1557 1559 1560 1562 1564 1566 1567 1568 1569 1570 1571 1572 1572 1572 1572 1573 1573 1573 1574 1574 1574 1574 1574 1574 1574 1574 1574 1574 1574
1517 1520 1520 1521 1522 1522 1522 1522 1522 1526 1529 1532 1535 1538 1541 1545 1548 1550 1552 1554 1555 1557 1558 1560 1562 1564 1566 1567 1568 1569 1570 1571 1571 1571 1571 1571 1572 1572 1573 1572 1572 1572 1572 1572 1572 1572 1572 1572 1572
1518 1519 1519 1522 1521 1520 1522 1523 1521 1523 1527 1530 1533 1535 1538 1541 1544 1547 1549 1551 1553 1554 1556 1558 1560 1562 1563 1565 1567 1567 1568 1569 1570 1570 1570 1570 1570 1570 1570 1570 1571 1570 1570 1570 1569 1569 1569 1570 1570
1521 1516 1519 1521 1523 1521 1523 1526 1519 1518 1522 1526 1529 1531 1534 1538 1541 1544 1546 1548 1550 1552 1554 1556 1557 1559 1561 1563 1564 1565 1566 1568 1568 1568 1568 1568 1568 1568 1568 1568 1568 1568 1568 1567 1567 1567 1567 1567 1567
1515 1517 1519 1520 1521 1522 1521 1524 1517 1516 1519 1520 1523 1527 1531 1534 1538 1540 1543 1545 1548 1550 1552 1553 1555 1556 1558 1559 1561 1563 1564 1565 1566 1566 1566 1566 1566 1566 1566 1566 1565 1565 1565 1564 1564 1564 1564 1564 1564
1518 1520 1521 1520 1520 1533 1524 1526 1522 1512 1515 1515 1519 1524 1527 1531 1535 1538 1541 1543 1545 1547 1549 1551 1552 1553 1555 1557 1559 1560 1561 1562 1563 1564 1564 1564 1564 1564 1564 1563 1563 1562 1562 1561 1561 1561 1561 1561 1560
1517 1521 1532 1535 1534 1530 1520 1525 1519 1509 1511 1514 1517 1521 1525 1528 1532 1535 1538 1541 1543 1545 1547 1549 1550 1552 1553 1555 1556 1558 1559 1560 1560 1561 1562 1562 1562 1562 1562 1561 1560 1560 1559 1559 1558 1558 1557 1557 1557
1514 1515 1528 1538 1536 1525 1525 1524 1511 1509 1513 1516 1518 1520 1522 1526 1529 1533 1536 1539 1541 1543 1545 1547 1549 1550 1552 1553 1555 1556 1557 1558 1559 1559 1560 1560 1560 1560 1559 1559 1558 1557 1557 1556 1555 1555 1554 1554 1554
1513 1512 1505 1515 1520 1525 1519 1515 1509 1508 1511 1514 1516 1518 1521 1524 1527 1531 1534 1537 1540 1542 1544 1545 1547 1549 1550 1552 1553 1554 1555 1556 1557 1557 1557 1558 1558 1558 1557 1557 1556 1556 1555 1554 1553 1553 1552 1552 1551
1504 1504 1511 1516 1532 1535 1525 1521 1513 1509 1509 1511 1514 1517 1520 1523 1527 1530 1533 1536 1539 1541 1542 1544 1546 1548 1549 1550 1551 1552 1553 1554 1555 1555 1556 1556 1556 1556 1555 1555 1554 1554 1553 1552 1551 1551 1550 1550 1549
1510 1509 1509 1511 1513 1527 1531 1520 1502 1506 1509 1510 1513 1517 1520 1523 1526 1529 1532 1535 1538 1540 1542 1543 1545 1547 1548 1549 1550 1551 1552 1553 1553 1554 1554 1554 1554 1554 1553 1553 1553 1552 1551 1551 1550 1549 1549 1549 1548
1499 1501 1507 1518 1521 1518 1518 1515 1502 1505 1508 1511 1514 1517 1520 1523 1526 1529 1532 1534 1537 1539 1541 1543 1545 1546 1548 1549 1549 1550 1551 1551 1552 1552 1553 1553 1553 1553 1552 1552 1551 1551 1550 1550 1549 1549 1548 1547 1547